Погода в Биробиджане

Погода в Биробиджане : погода сейчас, прогноз погоды и архив. Всё, что Вы хотите узнать о погоде в Биробиджане!

Хотите узнать прогноз погоды в Биробиджане? Тогда Вам сюда: Погода в Биробиджане

Поиск расширенной информации на нашем сайте:

Другие новости

Новости СМИ2

Главная страница сайта

Новости сайта

02.10.2013

Напоминаем, что на нашем новом сайте вы можете получить высокодетализированные прогнозы погоды по пунктам России, СНГ и мира (включающие важные для авиации метеовеличины, такие как направление и скорость ветра, видимость, явления погоды, количество и форма облачности, нижняя и верхняя граница облачности), а также ознакомиться с разнообразными материалами по авиационной метеорологии и подборкой полезных ссылок на эту тему.

Сайт Метеоцентр.Азия посвящён разработке технологий оптимизации авиаметеорологического обслуживания, включая проектирование и перспективное создание нескольких автоматизированных авиаметеорологических систем:
- система выпуска высокодетальных прогностических карт явлений погоды для нижнего воздушного пространства по России и ближнему зарубежью;
- система верификации прогнозов TAF (выпускаемых синоптиками официальных АМСГ РФ и ближнего зарубежья) и AUTOTAF (выпускаемых сайтом Метеоцентр.Азия) - выявление ошибок, онлайн-сопоставление с фактической погодой METAR, автоматическое внесение коррективов в прогнозы при резком отклонении фактической погоды от прогноза, подсчёт оправдываемости прогнозов по элементам и в целом;
- система обработки, анализа и отображения авиаметеорологической информации для применения провайдерами метеорологической информации.

Рекомендуем: Ремень вариатора на снегоход ямаха.

Погода в Биробиджане - сегодня

Время (UTC), дата Ветер
(°,м/с) 
Видим.   Явления Облачность Т
(°С)
Тd
(°С)
f(%) Тe
(°С)
Pmin
(гПа)
dP
(гПа)
Po
(мм)
O2
(г/м3)
Тmin Tmax R s Состояние
почвы
06 18.02.17 260 (З) 20000 м    10/0 верхняя 
[Cs]
-9.4 -20.9 39 -11  1015.1  0.5  754  316           
09 18.02.17 270 (З) 20000 м    3/0 средняя 
[As op]
-13.4 -21.8 49 -16  1016.7  1.4  755  321    -9.4       
12 18.02.17 300 (СЗ) 20000 м    ясно 
-15.9 -23 54 -18  1018.2  1.4  756  325           
15 18.02.17 210 (ЮЗ) 20000 м    ясно 
-25.9 -28.2 81 -26  1018.4  -0.2  755  338           
18 18.02.17 220 (ЮЗ) 20000 м    ясно 
-25.2 -28.3 75 -28  1018.7  0.3  756  337           
21 18.02.17 тихо ()   20000 м    ясно 
-28.1 -31.1 75 -28  1018.2  -0.6  755  341  -29.9      25  равномерный
сухой снег
100% 
00 19.02.17 140 (ЮВ) 20000 м    ясно 
-22.4 -26.6 69 -23  1018  0.1  755  333  -30.9         
03 19.02.17 210 (ЮЗ) 20000 м    ясно 
-12.9 -24.2 38 -15  1016.3  -1.3  754  321           
06 19.02.17 180 (Ю) 20000 м    ясно 
-11.3 -21.9 41 -15  1014  -2.2  753  318           
09 19.02.17 190 (Ю) 20000 м    ясно 
-14.7 -22.8 50 -17  1013.9  -0.3  752  322    -11.2       
12 19.02.17 тихо ()   20000 м    ясно 
-22.3 -25.5 75 -22  1014.8  0.6  753  332           
15 19.02.17 360 (С) 20000 м    ясно 
-26.4 -28.5 82 -27  1015.1  40.1  753  338           
18 19.02.17 150 (ЮВ) 20000 м    ясно 
-29.1 -31.8 77 -30  1015.3  0.1  753  342           
21 19.02.17 тихо ()   20000 м    ясно 
-32 -35.4 72 -32  1015.8  0.3  753  346  -32      25  равномерный
сухой снег
100% 
00 20.02.17 тихо ()   20000 м    ясно 
-21.4 -24.2 78 -21  1016.1  0.8  754  331  -32.3         
03 20.02.17 тихо ()   20000 м    10/0 верхняя 
[Cs]
-11 -22.5 38 -11  1015.2  -0.4  754  318           
06 20.02.17 170 (Ю) 20000 м    1/0 средняя 
[Ac lent]
-7.3 -22.3 29 -7  1013.9  -1.1  753  313           
09 20.02.17 310 (СЗ) 20000 м    ясно 
-9.3 -25.1 26 -11  1015.2  1.2  754  316    -6.4       
12 20.02.17 310 (СЗ) 20000 м    ясно 
-11.3 -24.6 32 -14  1017.2  1.9  755  319           
15 20.02.17 330 (СЗ) 20000 м    ясно 
-13.7 -26.1 34 -14  1018.8  1.4  756  322           
18 20.02.17 310 (СЗ) 20000 м    ясно 
-15.5 -26.1 40 -18  1019.7  0.8  757  325           
21 20.02.17 310 (СЗ) 20000 м    ясно 
-16.9 -25.7 46 -21  1021.8  2.1  758  327  -20.9      25  равномерный
сухой снег
100% 
00 21.02.17 250 (З) 20000 м    ясно 
-15.6 -25.5 42 -16  1023.2  1.4  759  326  -22.7         
03 21.02.17 300 (СЗ) 20000 м    ясно 
-5.7 -22.3 26 -7  1022.6  -0.3  759  314           
06 21.02.17 220 (ЮЗ) 20000 м    ясно 
-2.7 -20.2 25 -2  1021.8  -0.6  759  310           
Время (UTC), дата Ветер
(°,м/с) 
Видим.   Явления Облачность Т
(°С)
Тd
(°С)
f(%) Тe
(°С)
Pmin
(гПа)
dP
(гПа)
Po
(мм)
O2
(г/м3)
Тmin Tmax R s Состояние
почвы

Для получения пояснительной информации подведите курсор к названию столбца.

ПОГОДА в Биробиджане - архив

Всё, что Вы хотите узнать о погоде в Биробиджане - удобно и подробно!

Выберите нужную дату (начиная с 1 января 2015* года) и нажмите кнопку "Найти".
Будут отображены архивные сводки погоды по пункту Биробиджан, начиная с указанной даты.


Отображать данные в формате CSV (для использования в таблицах Excel)


Внимание! Наш архив погоды предназначен исключительно для личного некоммерческого использования в познавательных целях. Если Вам необходимы официальные справки о состоянии погоды (для производственных, юридических, коммерческих и т.п. целей), обращайтесь в органы Росгидромета.

*Примечание: данная дата относится к архиву по метеостанциям СССР (Россия, СНГ, Балтия).
Архив по метеостанциям Зарубежной Европы и Азии (кроме Китая) хранится 10 дней, по другим регионам земного шара (Китай, Африка, Америка, Австралия, Океания) - 1 день.

Биробиджан - район местоположения метеостанции


Название, широта, долгота, высота метеостанции:
Биробиджан 48.7°ш. 132.9°д. 80 м над ур. моря [Российская Федерация]

Дополнительная информация

В oтличие oт бoльшинства пoгoдных сайтoв мы публикуем пoдрoбную метеoинфoрмацию в детальнoм прoфессиoнальнoм фoрмате.

Характеристики температуры и влажнoсти вoздуха измеряются на высoте 2 м в тени вдали oт зданий и деревьев.
Скoрoсть ветра измеряется на высoте 10 м (на урoвне рoста челoвека скoрoсть ветра ниже в 1.5-2 раза). Если метеoстанция нахoдится в гoрoде или в лесу, тo скoрoсть ветра занижена на 2-4 м/с пo сравнению с oткрытым местoм. Скoрoсть ветра над акватoриями крупных рек и oзёр, а также на вершинах хoлмoв на 2-5 м/с выше, чем в oбычных услoвиях.
Атмoсфернoе давление в разных тoчках местнoсти мoжет значительнo oтличаться oт давления на метеoстанции, в зависимoсти oт услoвий рельефа (при пoдъёме на 10 м давление пoнижается примернo на 1 мм рт.ст.).